Regional Weather Roundup
Issued by NWS

Home | Current Version | Previous Version | Text Only | Print | Product List | Glossary On
Versions: 1 2 3 4 5 6 7 8 9 10 11 12 13 14 15 16 17 18 19 20 21 22 23 24 25 26 27 28 29 30 31 32 33 34 35 36 37 38 39 40 41 42 43 44 45 46 47 48 49 50
990
ASUS42 KFFC 280203
RWRGA
WEATHER ROUNDUP FOR GEORGIA
NATIONAL WEATHER SERVICE PEACHTREE CITY GA
1000 PM EDT FRI MAY 27 2016

NOTE: "FAIR" INDICATES FEW OR NO CLOUDS BELOW 12,000 FEET WITH NO
SIGNIFICANT WEATHER AND/OR OBSTRUCTIONS TO VISIBILITY.

* = USE WITH CAUTION. THE STATIONS MARKED WITH AN ASTERISK MAY NOT
REPORT WEATHER SUCH AS PRECIPITATION, FOG, OR THUNDER AND ARE NOT
QUALITY CONTROLLED BY NWS.

THE REMARK "TC" DENOTES TEMPERATURE READING IN DEGREES CELSIUS.

GAZ001>058-280300-
NORTH GEORGIA

CITY           SKY/WX    TMP DP  RH WIND       PRES   REMARKS
ATLANTA        PTCLDY    77  60  55 SE5       30.07R
ATHENS         CLEAR     71  64  78 E3        30.07R
CHAMBLEE       CLEAR     75  61  61 SE3       30.07R
ROME           CLOUDY    78  60  53 S5        30.04R
WEST ATLANTA   CLEAR     78  60  53 E3        30.06R
GAINESVILLE    CLEAR     74  61  63 E3        30.11R
CARTERSVILLE   CLEAR     72  61  68 SE3       30.05R


CITY           SKY/WX    TMP DP  RH WIND       PRES   REMARKS
DALTON*        PTCLDY    77  63  61 SE7       30.04R
MARIETTA       PTCLDY    76  62  60 SE6       30.07R
KENNESAW*      CLEAR     75  59  57 SE5       30.03R
CANTON*        CLEAR     75  55  50 CALM      30.08R
BLAIRSVILLE*     N/A    N/A N/A N/A MISG      30.12S
$$

GAZ059>098-102>109-280300-
CENTRAL GEORGIA

CITY           SKY/WX    TMP DP  RH WIND       PRES   REMARKS
AUGUSTA-BUSH   CLEAR     72  60  66 SE8       30.07R
AUGUSTA-DANIEL CLEAR     78  59  51 SE5       30.09R
COLUMBUS       CLEAR     77  57  50 SE3       30.02R
MACON          CLEAR     71  60  68 SE7       30.03R
ROBINS AFB     CLEAR     73  61  65 SE6       30.03R


CITY           SKY/WX    TMP DP  RH WIND       PRES   REMARKS
LAGRANGE*      CLEAR     76  66  71 CALM      30.04R
SYLVANIA*      CLEAR     74  64  68 CALM      30.09R
MILLEDGEVILLE* CLEAR     75  61  60 CALM      30.05R
$$

GAZ099>101-110>166-280300-
SOUTH GEORGIA

CITY           SKY/WX    TMP DP  RH WIND       PRES   REMARKS
SAVANNAH       CLEAR     73  64  73 NE6       30.09R
VALDOSTA       CLEAR     76  65  68 E9        30.03R
ALMA           CLEAR     72  63  73 E3        30.06R
ST SIMONS      PTCLDY    76  66  71 E6        30.06R
FT STEWART     CLEAR     71  65  81 CALM      30.06R
ALBANY         CLEAR     77  58  51 E3        30.03R
HUNTER AFB     CLEAR     73  68  84 VRB2      30.06R
MOODY AFB      CLEAR     75  64  67 E7        30.02R
BRUNSWICK      CLEAR     77  70  78 NE5       30.07R


CITY           SKY/WX    TMP DP  RH WIND       PRES   REMARKS
BAINBRIDGE*    CLEAR     77  63  61 CALM      30.00R
MOULTRIE*      PTCLDY    79  63  57 E6        30.02R
VIDALIA*       CLEAR     73  61  64 SE3       30.07S
WAYCROSS*      CLOUDY    74  65  73 E5        30.05S
DOUGLAS*       CLEAR     77  63  61 E7        30.07R
$$




USA.gov is the U.S. government's official web portal to all federal, state and local government web resources and services.